Location: Newark
(44.3248°N, 23.7839°E)
Time: 04:24:22
(UTC+00:00)

X-37B - Pass Details

Date: 05 February 2022
Orbit: 328 x 343 km, 45.0° (Epoch: 12 May)

Event Time Altitude Azimuth Distance (km) Brightness Sun altitude
Rises 17:29:55 0° 281° (WNW) 2,119 5.8 -20.0°
Reaches altitude 10° 17:32:01 10° 273° (W) 1,276 4.4 -20.4°
Enters shadow 17:34:22 35° 221° (SW) 566 1.7 -20.8°
